Everett, WA

8:48 AM PST on December 12, 2019 (GMT -0800)
Snohomish County

Weather History for KPAE - October, 2019

Change the Weather History Date:

Tuesday, October 22, 2019

  Actual Average Record
Temperature  
Mean Temperature 52 °F -  
Max Temperature 57 °F 56 °F 70 °F (1965)
Min Temperature 46 °F 42 °F 32 °F (1981)
Degree Days  
Heating Degree Days 14    
Growing Degree Days 2 (Base 50)    
Moisture  
Dew Point 49 °F    
Average Humidity 86    
Maximum Humidity 100    
Minimum Humidity 72    
Precipitation  
Precipitation 0.10 in - - ()
Sea Level Pressure  
Sea Level Pressure 30.33 in    
Wind  
Wind Speed 6 mph (North)    
Max Wind Speed 12 mph    
Max Gust Speed 21 mph    
Visibility 8 miles    
Events Rain    
Averages and records for this station are not official NWS values.
T = Trace of Precipitation, MM = Missing Value Source: NWS Daily Summary

Daily Weather History Graph

Daily Weather History Graph

Search for Another Location

Airport or City:

Astronomy

Oct. 22, 2019 Rise Set
Actual Time 7:38 AM PDT 6:07 PM PDT
Civil Twilight 7:06 AM PDT 6:39 PM PDT
Nautical Twilight 6:30 AM PDT 7:15 PM PDT
Astronomical Twilight 5:54 AM PDT 7:51 PM PDT
Moon 12:17 AM PDT (10/22) 3:54 PM PDT (10/22)
Length of Visible Light 11h 32m
Length of Day
10h 29m
Last Quarter, 36% of the Moon is Illuminated
Oct 22
Last Quarter
Oct 27
New
Nov 4
First Quarter
Nov 12
Full
Nov 19
Last Quarter

Hourly Weather History & Observations

Time (PDT) Temp. Dew Point Humidity Pressure Visibility Wind Dir Wind Speed Gust Speed Precip Events Conditions
1:53 AM 57.0 °F 57.0 °F 100% 30.14 in 4.0 mi SSW 8.1 mph - 0.03 in Rain Light Rain
2:49 AM 57.2 °F 55.4 °F 94% 30.15 in 2.0 mi South 5.8 mph - 0.01 in Rain Light Rain
2:53 AM 57.0 °F 55.9 °F 96% 30.16 in 2.5 mi South 3.5 mph - 0.02 in Rain Light Rain
3:27 AM 57.0 °F 55.9 °F 96% 30.17 in 1.8 mi NNE 5.8 mph - 0.02 in Rain Light Rain
3:34 AM 57.0 °F 55.9 °F 96% 30.17 in 1.5 mi NNE 4.6 mph - 0.03 in Rain Light Rain
3:47 AM 57.2 °F 55.4 °F 94% 30.18 in 2.5 mi NNE 6.9 mph - 0.03 in Rain Light Rain
3:53 AM 57.0 °F 55.9 °F 96% 30.18 in 2.5 mi North 6.9 mph - 0.04 in Rain Light Rain
4:17 AM 55.0 °F 54.0 °F 96% 30.19 in 3.0 mi NW 10.4 mph 20.7 mph 0.00 in Rain Light Rain
4:53 AM 53.1 °F 51.1 °F 93% 30.21 in 7.0 mi North 11.5 mph - 0.01 in   Overcast
5:53 AM 52.0 °F 50.0 °F 93% 30.25 in 6.0 mi North 6.9 mph - N/A   Overcast
6:02 AM 52.0 °F 50.0 °F 93% 30.24 in 6.0 mi North 8.1 mph - N/A   Overcast
6:53 AM 52.0 °F 50.0 °F 93% 30.28 in 8.0 mi North 6.9 mph - N/A   Overcast
7:53 AM 52.0 °F 48.0 °F 86% 30.30 in 8.0 mi NNW 10.4 mph - N/A   Overcast
8:53 AM 52.0 °F 46.9 °F 83% 30.34 in 10.0 mi North 8.1 mph - N/A   Overcast
9:53 AM 52.0 °F 48.0 °F 86% 30.36 in 7.0 mi North 10.4 mph 16.1 mph N/A   Overcast
10:53 AM 53.1 °F 48.0 °F 83% 30.39 in 8.0 mi Variable 3.5 mph - N/A   Mostly Cloudy
11:53 AM 55.9 °F 46.9 °F 72% 30.40 in 10.0 mi Variable 4.6 mph - N/A   Overcast
12:53 PM 53.1 °F 46.0 °F 77% 30.42 in 10.0 mi North 5.8 mph - N/A   Overcast
1:53 PM 54.0 °F 46.9 °F 77% 30.41 in 10.0 mi North 8.1 mph - N/A   Overcast
2:53 PM 54.0 °F 46.0 °F 75% 30.42 in 10.0 mi Calm Calm - N/A   Overcast
3:53 PM 55.0 °F 46.9 °F 74% 30.42 in 10.0 mi Calm Calm - N/A   Overcast
4:53 PM 54.0 °F 46.9 °F 77% 30.43 in 10.0 mi North 3.5 mph - N/A   Overcast
5:53 PM 53.1 °F 46.0 °F 77% 30.44 in 10.0 mi Calm Calm - N/A   Overcast
6:00 PM 53.1 °F 46.0 °F 77% 30.43 in 10.0 mi NE 3.5 mph - N/A   Mostly Cloudy
6:21 PM 52.0 °F 46.0 °F 80% 30.43 in 10.0 mi NNE 3.5 mph - N/A   Overcast
6:53 PM 51.1 °F 46.9 °F 86% 30.44 in 10.0 mi Calm Calm - N/A   Overcast
7:53 PM 50.0 °F 46.0 °F 86% 30.45 in 10.0 mi Calm Calm - N/A   Mostly Cloudy
7:56 PM 50.0 °F 46.0 °F 86% 30.44 in 10.0 mi Calm Calm - N/A   Scattered Clouds
8:53 PM 50.0 °F 45.0 °F 83% 30.45 in 10.0 mi Variable 3.5 mph - N/A   Partly Cloudy
9:53 PM 50.0 °F 44.1 °F 80% 30.45 in 10.0 mi NW 5.8 mph - N/A   Clear
10:53 PM 46.9 °F 44.1 °F 90% 30.46 in 10.0 mi North 4.6 mph - N/A   Clear
11:53 PM 48.0 °F 45.0 °F 89% 30.46 in 10.0 mi NNW 6.9 mph - N/A   Clear